Home   Weather   Radebeul   Past weeks

Flag for Germany Past Weather in Radebeul, Saxony, Germany — Yesterday and Last 2 Weeks

Now
66 °F

Broken clouds.


Feels Like: 66 °F
Forecast: 54 / 67 °F
Wind: 8 mph from West

Location: Dresden-Klotzsche

Current Time: Aug 19, 2017 at 1:27:07 pm

Latest Report: Aug 19, 2017 at 12:50 pm


Visibility: N/A

Pressure: 30.07 "Hg

Humidity: 56%

Dew Point: 50 °F

Location of RadebeulLocation

Past Weather in Radebeul — Graph

°F

Radebeul Temperature Yesterday

Maximum temperature yesterday: 84 °F (at 5:20 pm)
Minimum temperature yesterday: 66 °F (at 5:50 am)
Average temperature yesterday: 74 °F

High & Low Weather Summary for the Past Weeks

 TemperatureHumidityPressure
High84 °F (Aug 18, 5:20 pm)100% (Aug 5, 10:50 pm)30.24 "Hg (Aug 5, 10:50 pm)
Low52 °F (Aug 7, 3:20 am)29% (Aug 7, 4:50 pm)29.80 "Hg (Aug 18, 7:50 pm)
Average67 °F72%30.04 "Hg
* Reported Aug 4 12:20 pm — Aug 19 12:20 pm, Radebeul. Weather by CustomWeather, © 2017

Note: Actual official high and low records may vary slightly from our data, if they occured in-between our weather recording intervals... More about our weather records

Advertising

Radebeul Weather History for the Previous 24 Hours

Scroll right to see more
 ConditionsComfort  
Time TempWeatherWind HumidityBarometerVisibility
12:20 pm
Sat, Aug 19
64 °FBroken clouds.9 mph64%30.07 "HgN/A
11:50 am64 °FBroken clouds.9 mph68%30.07 "HgN/A
11:20 am63 °FBroken clouds.9 mph73%30.07 "HgN/A
10:50 am63 °FMore clouds than sun.7 mph77%30.07 "HgN/A
10:20 am61 °FBroken clouds.6 mph83%30.07 "HgN/A
9:50 am63 °FBroken clouds.9 mph77%30.04 "HgN/A
9:20 am63 °FPartly sunny.12 mph77%30.04 "HgN/A
8:50 am63 °FMostly cloudy.10 mph77%30.01 "HgN/A
8:20 am63 °FCloudy.8 mph83%30.01 "HgN/A
7:50 am63 °FMostly cloudy.8 mph83%30.01 "HgN/A
7:20 am61 °FBroken clouds.6 mph88%29.98 "HgN/A
6:50 am61 °FBroken clouds.6 mph88%29.98 "HgN/A
6:20 am61 °FBroken clouds.7 mph88%29.98 "HgN/A
5:50 am61 °FPartly cloudy.8 mph88%29.98 "HgN/A
5:20 am61 °FPartly cloudy.5 mph88%29.98 "HgN/A
4:50 am61 °FPartly cloudy.3 mph94%29.95 "HgN/A
4:20 am61 °FPartly cloudy.5 mph94%29.95 "HgN/A
3:50 am63 °FPassing clouds.7 mph88%29.95 "HgN/A
3:20 am63 °FPartly cloudy.6 mph94%29.95 "HgN/A
2:50 am63 °FPassing clouds.6 mph94%29.92 "HgN/A
2:20 am63 °FPartly cloudy.6 mph94%29.92 "HgN/A
1:50 am64 °FPassing clouds.8 mph88%29.92 "HgN/A
1:20 am64 °FPassing clouds.10 mph94%29.92 "HgN/A
12:50 am66 °FLight rain. Partly cloudy.9 mph88%29.89 "HgN/A
12:20 am66 °FPartly cloudy.9 mph94%29.89 "HgN/A
11:50 pm
Fri, Aug 18
66 °FLight rain. Partly cloudy.7 mph94%29.86 "HgN/A
11:20 pm66 °FSprinkles. Partly cloudy.5 mph94%29.86 "HgN/A
10:59 pm66 °FThundershowers. Partly cloudy.15 mph94%29.89 "HgN/A
10:50 pm66 °FThunderstorms. Passing clouds.14 mph94%29.89 "HgN/A
10:26 pm66 °FThunderstorms. Partly cloudy.16 mph94%29.89 "Hg6 mi
10:20 pm66 °FThunderstorms. Passing clouds.17 mph94%29.89 "Hg3 mi
9:50 pm70 °FLight rain. Partly cloudy.14 mph78%29.83 "HgN/A
9:20 pm77 °FLight rain. Clear.6 mph61%29.80 "HgN/A
8:50 pm77 °FClear.6 mph57%29.80 "Hg10 mi
8:29 pm77 °FClear.5 mph54%29.80 "Hg10 mi
7:50 pm79 °FSunny.7 mph58%29.80 "Hg10 mi
7:20 pm79 °FScattered clouds.5 mph58%29.83 "HgN/A
6:50 pm81 °FScattered clouds.8 mph54%29.83 "HgN/A
6:20 pm82 °FScattered clouds.7 mph51%29.83 "HgN/A
5:50 pm84 °FPassing clouds.8 mph45%29.86 "HgN/A
5:20 pm84 °FPassing clouds.8 mph51%29.86 "HgN/A
4:50 pm82 °FPassing clouds.9 mph51%29.89 "HgN/A
4:20 pm82 °FSunny.10 mph55%29.89 "Hg10 mi
3:50 pm81 °FSunny.13 mph58%29.92 "Hg10 mi
3:20 pm81 °FPassing clouds.10 mph58%29.92 "HgN/A
2:50 pm81 °FSunny.13 mph51%29.92 "Hg10 mi
2:20 pm81 °FSunny.14 mph51%29.95 "Hg10 mi
1:50 pm82 °FBroken clouds.12 mph48%29.95 "HgN/A
1:20 pm81 °FBroken clouds.7 mph51%29.95 "HgN/A
Weather by CustomWeather, © 2017

See weather overviewHow to use our weather pages